Skagway, AK

2:23 PM AKDT on August 30, 2016 (GMT -0800)
Skagway

Weather History for PAGY - October, 2012

Change the Weather History Date:

Tuesday, October 23, 2012

  Actual Average Record
Temperature  
Mean Temperature 36 °F -  
Max Temperature 39 °F 43 °F 57 °F (2002)
Min Temperature 34 °F 34 °F 23 °F (1991)
Degree Days  
Heating Degree Days 28    
Moisture  
Dew Point 15 °F    
Average Humidity 41    
Maximum Humidity 44    
Minimum Humidity 36    
Precipitation  
Precipitation 0.00 in - - ()
Sea Level Pressure  
Sea Level Pressure 30.27 in    
Wind  
Wind Speed 13 mph (NNE)    
Max Wind Speed 24 mph    
Max Gust Speed 33 mph    
Visibility 10 miles    
Events      
Averages and records for this station are not official NWS values.
T = Trace of Precipitation, MM = Missing Value Source: NWS Daily Summary

Daily Weather History Graph

Daily Weather History Graph

Search for Another Location

Airport or City:

Trip Planner

Search our weather history database for the weather conditions in past years. The results will help you decide how hot, cold, wet, or windy it might be!

Date:

Astronomy

Oct. 23, 2012 Rise Set
Actual Time 8:00 AM AKDT 5:29 PM AKDT
Civil Twilight 7:17 AM AKDT 6:11 PM AKDT
Nautical Twilight 6:30 AM AKDT 6:59 PM AKDT
Astronomical Twilight 5:42 AM AKDT 7:46 PM AKDT
Moon 3:28 PM AKDT (10/23) 12:38 AM AKDT (10/23)
Length of Visible Light 10h 54m
Length of Day
9h 28m
Waxing Gibbous, 68% of the Moon is Illuminated
Oct 23
Waxing Gibbous
Oct 29
Full
Nov 6
Last Quarter
Nov 13
New
Nov 20
First Quarter

Hourly Weather History & Observations

Time (AKDT) Temp. Windchill Dew Point Humidity Pressure Visibility Wind Dir Wind Speed Gust Speed Precip Events Conditions
12:53 AM 37.0 °F 29.3 °F 15.1 °F 41% 30.22 in 10.0 mi NNE 11.5 mph - N/A   Scattered Clouds
1:53 AM 37.0 °F 31.6 °F 15.1 °F 41% 30.22 in 10.0 mi NNE 6.9 mph - N/A   Clear
2:53 AM 36.0 °F 29.0 °F 15.1 °F 43% 30.23 in 10.0 mi NNE 9.2 mph 18.4 mph N/A   Clear
4:53 AM 35.1 °F 25.2 °F 15.1 °F 44% 30.24 in 10.0 mi NNE 16.1 mph 23.0 mph N/A   Clear
5:53 AM 35.1 °F 26.4 °F 14.0 °F 42% 30.25 in 10.0 mi NNE 12.7 mph 21.9 mph N/A   Scattered Clouds
6:53 AM 35.1 °F 24.5 °F 14.0 °F 42% 30.26 in 10.0 mi NE 18.4 mph 24.2 mph N/A   Mostly Cloudy
7:53 AM 34.0 °F 24.2 °F 14.0 °F 44% 30.27 in 10.0 mi NNE 15.0 mph 25.3 mph N/A   Partly Cloudy
8:53 AM 35.1 °F 25.2 °F 14.0 °F 42% 30.27 in 10.0 mi NE 16.1 mph 28.8 mph N/A   Mostly Cloudy
9:53 AM 35.1 °F 23.0 °F 14.0 °F 42% 30.27 in 10.0 mi NE 24.2 mph 33.4 mph N/A   Overcast
10:53 AM 35.1 °F 23.3 °F 14.0 °F 42% 30.27 in 10.0 mi NE 23.0 mph 32.2 mph N/A   Overcast
11:53 AM 37.9 °F 27.3 °F 14.0 °F 38% 30.27 in 10.0 mi NE 21.9 mph 29.9 mph N/A   Partly Cloudy
12:53 PM 39.0 °F 28.8 °F 14.0 °F 36% 30.26 in 10.0 mi NNE 21.9 mph 33.4 mph N/A   Clear
1:53 PM 39.0 °F 29.3 °F 14.0 °F 36% 30.27 in 10.0 mi NE 19.6 mph 27.6 mph N/A   Clear
2:53 PM 39.9 °F 32.5 °F 15.1 °F 36% 30.27 in 10.0 mi NNE 12.7 mph - N/A   Scattered Clouds
3:53 PM 39.0 °F 32.8 °F 15.1 °F 38% 30.27 in 10.0 mi NNE 9.2 mph 18.4 mph N/A   Mostly Cloudy
4:53 PM 37.9 °F 31.5 °F 15.1 °F 39% 30.27 in 10.0 mi NNE 9.2 mph - N/A   Overcast
5:53 PM 37.0 °F 31.0 °F 16.0 °F 42% 30.27 in 10.0 mi NNE 8.1 mph - N/A   Overcast
6:53 PM 37.0 °F 29.8 °F 15.1 °F 41% 30.28 in 10.0 mi NNE 10.4 mph - N/A   Overcast
7:53 PM 37.0 °F 29.8 °F 16.0 °F 42% 30.29 in 10.0 mi NNE 10.4 mph - N/A   Overcast
8:53 PM 37.0 °F 28.5 °F 16.0 °F 42% 30.30 in 10.0 mi NNE 13.8 mph - N/A   Overcast
9:53 PM 37.0 °F 29.8 °F 15.1 °F 41% 30.30 in 10.0 mi NNE 10.4 mph - N/A   Overcast
10:53 PM 36.0 °F 29.0 °F 15.1 °F 43% 30.31 in 10.0 mi NNE 9.2 mph 24.2 mph N/A   Overcast
11:53 PM 35.1 °F 26.9 °F 15.1 °F 44% 30.32 in 10.0 mi NNE 11.5 mph - N/A   Overcast